Back to catalog

TIANFU DONGPO 08

AliveCommunicationsSSO
NORAD 54686·PAYLOAD·🇨🇳 China
This satellite name has not been confirmed by official sources yet.

Launched Dec 9, 2022 from Yellow Sea Launch Area

Loading…

Next Passes (next 24 hours)

TLE

FreshSource: Space-Track

Epoch: Sep 14, 2026, 14:24 UTC

1 54686U 22167E   26257.60057806  .00008082  00000-0  23906-3 0  9992
2 54686  97.6941  69.5136 0007395 201.3363 158.7572 15.35172934209038

Track TIANFU DONGPO 08 in real time with AllMySat

Download on the App Store